User: anonymous   Login
Location: Lac Lasalle
(46.0398°N, 74.1576°W)
Time: 19:48:12
(UTC-05:00)
Language:

LilacSat-2 - Orbit

View from above orbital plane
View from above orbital plane
View from above satellite
View from above satellite

Ground track
Ground track

The orbit data is extracted from the following two-line orbital elements,

1 40908U 15049K   19348.77017361  .00000447  00000-0  28242-4 0  9994
2 40908  97.4842 346.2434 0014729 308.3315  49.4600 15.13914246233893
Epoch (UTC): 14 December 2019 18:29:03
Eccentricity: 0.0014729
inclination: 97.4842°
perigee height: 514 km
apogee height: 534 km
right ascension of ascending node: 346.2434°
argument of perigee: 308.3315°
revolutions per day: 15.13914246
mean anomaly at epoch: 49.4600°
orbit number at epoch: 23389

The dashed part of the orbit path shows where the satellite is in the earth's shadow,  

DLR